Location: Bourg-d�Oueil
(42.8588°N, 0.4991°E)
Time: 20:29:43
(UTC+00:00)

Cosmos 1726 - Pass Details

Date: 16 June 2021
Orbit: 480 x 496 km, 82.5° (Epoch: 23 July)

Event Time Altitude Azimuth Distance (km) Brightness Sun altitude
Rises 20:36:27 0° 352° (N) 2,550 6.7 -9.0°
Reaches altitude 10° 20:38:33 10° 353° (N) 1,665 5.6 -9.3°
Maximum altitude 20:42:12 86° 82° (E) 488 2.0 -9.8°
Drops below altitude 10° 20:45:49 10° 172° (S) 1,654 4.3 -10.3°
Enters shadow 20:45:52 10° 172° (S) 1,677 4.3 -10.3°
